CW9849 Weather Reports


time (UTC)temp
F
wind
direction
speed
knots
gust
knots
rain 1hr
in
rain 24hr
in
rain mn
in
humidity
%
barometer
mb
20260506031540 50 354 7.0 12.2 0.00 0.00 0.00 78 1015.7
20260506030038 50 352 7.0 12.2 0.00 0.00 0.00 78 1015.8
20260506024534 50 23 7.0 12.2 0.00 0.00 0.00 78 1015.8
20260506023035 50 350 7.0 13.0 0.00 0.00 0.00 78 1015.9
20260506021532 50 339 7.0 13.0 0.00 0.00 0.00 78 1015.9
20260506020028 50 25 7.8 12.2 0.00 0.00 0.00 78 1015.8
20260506014529 50 4 9.6 14.8 0.00 0.00 0.00 79 1015.9
20260506013025 50 32 9.6 14.8 0.00 0.00 0.00 79 1016.0
20260506011523 50 356 7.0 13.0 0.00 0.00 0.00 78 1016.1
20260506010022 50 11 7.8 13.0 0.00 0.00 0.00 78 1016.2
20260506004532 50 354 9.6 15.6 0.00 0.00 0.00 78 1016.2
20260506003031 50 20 7.8 15.6 0.00 0.00 0.00 78 1016.3
20260506001517 50 13 9.6 13.0 0.00 0.00 0.00 78 1016.5
20260506000016 50 16 9.6 14.8 0.00 0.00 0.00 78 1016.5
20260505234525 50 8 10.4 14.8 0.00 0.00 0.00 78 1016.7
20260505233012 50 11 7.8 14.8 0.00 0.00 0.00 77 1016.7
20260505231514 50 349 7.8 13.9 0.00 0.00 0.00 77 1016.6
20260505230009 50 324 8.7 13.9 0.00 0.00 0.00 77 1016.7
20260505224508 50 351 9.6 15.6 0.00 0.00 0.00 77 1016.8
20260505223005 50 1 7.0 16.5 0.00 0.00 0.00 78 1016.8
20260505221504 50 355 8.7 14.8 0.00 0.00 0.00 78 1016.9
20260505220011 50 352 10.4 16.5 0.00 0.00 0.00 78 1016.8
20260505214503 50 354 7.0 13.9 0.00 0.00 0.00 78 1016.8
20260505213105 50 339 7.8 14.8 0.00 0.00 0.00 78 1017.0
20260505213001 50 313 7.8 14.8 0.00 0.00 0.00 78 1016.9
20260505211604 50 4 9.6 14.8 0.00 0.00 0.00 78 1017.1
20260505211502 50 344 8.7 14.8 0.00 0.00 0.00 79 1017.1
20260505210059 50 13 8.7 14.8 0.00 0.00 0.00 79 1017.1
20260505204600 50 344 8.7 14.8 0.00 0.00 0.00 79 1016.9
20260505203056 50 8 7.8 15.6 0.00 0.00 0.00 79 1016.9
20260505201554 51 354 8.7 13.9 0.00 0.00 0.00 79 1016.9
20260505200053 51 358 7.0 13.9 0.00 0.00 0.00 78 1016.7
20260505194552 51 349 7.8 14.8 0.00 0.00 0.00 78 1016.5
20260505193056 51 343 10.4 15.6 0.00 0.00 0.00 78 1016.6
20260505191556 51 1 9.6 15.6 0.00 0.00 0.00 77 1016.5
20260505190047 51 354 10.4 17.4 0.00 0.00 0.00 77 1016.6
20260505184545 52 21 9.6 15.6 0.00 0.00 0.00 76 1016.5
20260505183045 52 18 8.7 15.6 0.00 0.00 0.00 75 1016.6
20260505181544 53 15 7.8 14.8 0.00 0.00 0.00 75 1016.6
20260505180051 53 339 7.0 14.8 0.00 0.00 0.00 74 1016.6
20260505174555 55 339 7.8 13.9 0.00 0.00 0.00 73 1016.5
20260505173038 56 8 8.7 15.6 0.00 0.00 0.00 74 1016.6
20260505171537 57 336 11.3 15.6 0.00 0.00 0.00 73 1016.5
20260505170039 57 11 10.4 14.8 0.00 0.00 0.00 74 1016.6
20260505164539 57 18 7.0 13.9 0.00 0.00 0.00 73 1016.7
20260505163039 58 354 7.8 14.8 0.00 0.00 0.00 73 1016.7
20260505161534 58 349 7.8 14.8 0.00 0.00 0.00 73 1016.8
20260505153040 59 11 7.8 13.9 0.00 0.00 0.00 73 1016.9
20260505151534 59 53 8.7 14.8 0.00 0.00 0.00 72 1016.8
20260505130118 58 32 10.4 18.2 0.00 0.00 0.00 76 1016.7
20260505124518 58 41 12.2 15.6 0.00 0.00 0.00 77 1016.7
20260505123016 58 49 10.4 18.2 0.00 0.00 0.00 78 1016.7
20260505121516 58 28 12.2 18.2 0.00 0.00 0.00 79 1016.5
20260505120013 58 46 11.3 18.2 0.00 0.00 0.00 80 1016.4
20260505114514 57 46 10.4 17.4 0.00 0.00 0.00 80 1016.4
20260505113010 57 46 9.6 16.5 0.00 0.00 0.00 80 1016.4
20260505111509 57 49 9.6 16.5 0.00 0.00 0.00 80 1016.3
20260505101503 55 63 13.0 20.9 0.00 0.00 0.00 81 1016.5
20260505100058 55 37 13.0 20.9 0.00 0.00 0.00 83 1016.4
20260505094555 54 34 12.2 20.9 0.00 0.00 0.00 85 1016.5
20260505093053 54 34 12.2 20.9 0.00 0.00 0.00 86 1016.3
20260505091551 54 47 12.2 20.0 0.00 0.00 0.00 87 1016.2
20260505090054 54 41 11.3 20.0 0.00 0.00 0.00 87 1016.2
20260505084551 54 49 14.8 20.0 0.00 0.00 0.00 87 1016.2
20260505083100 54 11 13.9 19.1 0.00 0.00 0.00 88 1016.1
20260505081548 53 46 11.3 18.2 0.00 0.00 0.00 88 1016.0
20260505080042 53 52 12.2 16.5 0.00 0.00 0.00 88 1016.1
20260505074543 53 37 10.4 17.4 0.00 0.00 0.00 89 1016.0
20260505073038 53 27 9.6 14.8 0.00 0.00 0.00 88 1015.9
20260505071540 52 21 10.4 15.6 0.00 0.00 0.00 88 1015.9
20260505070045 53 18 7.8 13.9 0.00 0.00 0.00 89 1015.8
20260505064551 53 14 8.7 14.8 0.00 0.00 0.00 89 1015.8
20260505063033 52 25 7.8 16.5 0.00 0.00 0.00 89 1015.6
20260505061538 52 14 9.6 14.8 0.00 0.00 0.00 89 1015.6
20260505060030 52 41 8.7 14.8 0.00 0.00 0.00 89 1015.6
20260505054526 51 33 8.7 14.8 0.00 0.02 0.00 89 1015.5
20260505053023 51 27 8.7 14.8 0.00 0.02 0.00 89 1015.6
20260505051521 51 13 7.0 12.2 0.00 0.02 0.00 89 1015.5
20260505041525 51 15 6.1 11.3 0.00 0.02 0.00 89 1015.5
20260505040015 51 37 6.1 12.2 0.00 0.02 0.00 89 1015.6
20260505034513 51 30 6.1 13.0 0.00 0.02 0.00 89 1015.6
20260505033015 51 40 6.1 12.2 0.00 0.02 0.00 88 1015.5